| time (UTC) | temp F | wind direction | speed knots | gust knots | rain 1hr in | rain 24hr in | rain mn in | humidity % | barometer mb |
| 20260504081529 | 63 | 182 | 6.1 | 11.3 | 0.00 | 0.00 | 0.00 | 69 | 1011.1 |
| 20260504044528 | 66 | 160 | 7.8 | 16.5 | 0.00 | 0.00 | 0.00 | 64 | 1013.0 |
| 20260504043030 | 66 | 178 | 7.8 | 13.9 | 0.00 | 0.00 | 0.00 | 64 | 1013.0 |
| 20260504041534 | 65 | 184 | 7.8 | 12.2 | 0.00 | 0.00 | 0.00 | 63 | 1013.1 |
| 20260504040030 | 65 | 175 | 7.0 | 12.2 | 0.00 | 0.00 | 0.00 | 63 | 1013.2 |
| 20260504034539 | 65 | 171 | 7.8 | 11.3 | 0.00 | 0.00 | 0.00 | 62 | 1013.2 |
| 20260504033030 | 65 | 155 | 7.8 | 12.2 | 0.00 | 0.00 | 0.00 | 62 | 1013.2 |
| 20260504031528 | 65 | 169 | 6.1 | 10.4 | 0.00 | 0.00 | 0.00 | 61 | 1013.3 |
| 20260504030036 | 66 | 144 | 6.1 | 10.4 | 0.00 | 0.00 | 0.00 | 60 | 1013.4 |
| 20260504024530 | 66 | 150 | 5.2 | 9.6 | 0.00 | 0.00 | 0.00 | 59 | 1013.4 |
| 20260504023027 | 66 | 161 | 6.1 | 10.4 | 0.00 | 0.00 | 0.00 | 58 | 1013.4 |
| 20260504021537 | 67 | 171 | 8.7 | 13.9 | 0.00 | 0.00 | 0.00 | 58 | 1013.3 |
| 20260504020036 | 67 | 182 | 7.0 | 10.4 | 0.00 | 0.00 | 0.00 | 56 | 1013.2 |
| 20260504014527 | 68 | 173 | 7.0 | 12.2 | 0.00 | 0.00 | 0.00 | 55 | 1013.1 |
| 20260504013035 | 69 | 167 | 7.0 | 10.4 | 0.00 | 0.00 | 0.00 | 54 | 1013.1 |
| 20260504011530 | 70 | 164 | 7.0 | 13.0 | 0.00 | 0.00 | 0.00 | 53 | 1013.0 |
| 20260504010027 | 70 | 167 | 9.6 | 13.9 | 0.00 | 0.00 | 0.00 | 53 | 1012.9 |
| 20260504004539 | 71 | 189 | 8.7 | 13.0 | 0.00 | 0.00 | 0.00 | 52 | 1013.0 |
| 20260504003028 | 72 | 171 | 7.8 | 14.8 | 0.00 | 0.00 | 0.00 | 51 | 1013.0 |
| 20260504001535 | 72 | 190 | 9.6 | 14.8 | 0.00 | 0.00 | 0.00 | 50 | 1013.3 |
| 20260504000029 | 73 | 194 | 10.4 | 15.6 | 0.00 | 0.00 | 0.00 | 50 | 1013.3 |
| 20260503234529 | 73 | 205 | 9.6 | 14.8 | 0.00 | 0.00 | 0.00 | 49 | 1013.3 |
| 20260503233029 | 74 | 200 | 7.8 | 13.9 | 0.00 | 0.00 | 0.00 | 49 | 1013.6 |
| 20260503231530 | 74 | 157 | 8.7 | 17.4 | 0.00 | 0.00 | 0.00 | 49 | 1013.7 |
| 20260503230028 | 74 | 190 | 5.2 | 18.2 | 0.00 | 0.00 | 0.00 | 49 | 1014.0 |
| 20260503224528 | 74 | 185 | 7.8 | 17.4 | 0.00 | 0.00 | 0.00 | 48 | 1014.1 |
| 20260503223028 | 74 | 223 | 9.6 | 16.5 | 0.00 | 0.00 | 0.00 | 48 | 1014.3 |
| 20260503221532 | 74 | 190 | 7.0 | 15.6 | 0.00 | 0.00 | 0.00 | 48 | 1014.4 |
| 20260503220034 | 74 | 191 | 11.3 | 18.2 | 0.00 | 0.00 | 0.00 | 47 | 1014.5 |
| 20260503214541 | 74 | 204 | 8.7 | 17.4 | 0.00 | 0.00 | 0.00 | 48 | 1014.9 |
| 20260503213033 | 74 | 202 | 8.7 | 16.5 | 0.00 | 0.00 | 0.00 | 48 | 1015.2 |
| 20260503211528 | 74 | 203 | 8.7 | 14.8 | 0.00 | 0.00 | 0.00 | 48 | 1015.4 |
| 20260503210027 | 73 | 217 | 8.7 | 17.4 | 0.00 | 0.00 | 0.00 | 48 | 1015.7 |
| 20260503204530 | 73 | 175 | 11.3 | 17.4 | 0.00 | 0.00 | 0.00 | 49 | 1015.8 |
| 20260503203029 | 73 | 203 | 10.4 | 18.2 | 0.00 | 0.00 | 0.00 | 49 | 1016.2 |
| 20260503201534 | 72 | 195 | 7.8 | 15.6 | 0.00 | 0.00 | 0.00 | 50 | 1016.8 |
| 20260503200028 | 72 | 150 | 10.4 | 17.4 | 0.00 | 0.00 | 0.00 | 50 | 1017.2 |
| 20260503194534 | 71 | 201 | 8.7 | 18.2 | 0.00 | 0.00 | 0.00 | 51 | 1017.4 |
| 20260503193030 | 71 | 179 | 10.4 | 15.6 | 0.00 | 0.00 | 0.00 | 52 | 1017.5 |
| 20260503191527 | 70 | 213 | 8.7 | 19.1 | 0.00 | 0.00 | 0.00 | 53 | 1017.8 |
| 20260503190038 | 70 | 273 | 7.0 | 16.5 | 0.00 | 0.00 | 0.00 | 52 | 1018.2 |
| 20260503184530 | 70 | 227 | 8.7 | 16.5 | 0.00 | 0.00 | 0.00 | 54 | 1018.3 |
| 20260503183036 | 69 | 172 | 8.7 | 16.5 | 0.00 | 0.00 | 0.00 | 55 | 1018.6 |
| 20260503181549 | 68 | 188 | 8.7 | 16.5 | 0.00 | 0.00 | 0.00 | 56 | 1018.8 |
| 20260503180041 | 68 | 214 | 8.7 | 16.5 | 0.00 | 0.00 | 0.00 | 57 | 1019.2 |
| 20260503174529 | 67 | 242 | 9.6 | 19.1 | 0.00 | 0.00 | 0.00 | 58 | 1019.3 |
| 20260503173027 | 67 | 175 | 8.7 | 16.5 | 0.00 | 0.00 | 0.00 | 59 | 1019.6 |
| 20260503171530 | 66 | 178 | 10.4 | 16.5 | 0.00 | 0.00 | 0.00 | 60 | 1019.7 |